User: anonymous   Login
Location: Unspecified
(0.0000°N, 0.0000°E)
Time: 13:00:59
(UTC+00:00)
Language:

Kitsat-3 - Orbit

View from above orbital plane
View from above orbital plane
View from above satellite
View from above satellite

Ground track
Ground track

The orbit data is extracted from the following two-line orbital elements,

1 25756U 99029A   18347.92990287 +.00000039 +00000-0 +20522-4 0  9990
2 25756 098.4322 275.2884 0014096 014.4976 345.6621 14.53737403036432
Epoch (UTC): 13 December 2018 22:19:03
Eccentricity: 0.0014096
inclination: 98.4322°
perigee height: 703 km
apogee height: 723 km
right ascension of ascending node: 275.2884°
argument of perigee: 14.4976°
revolutions per day: 14.53737403
mean anomaly at epoch: 345.6621°
orbit number at epoch: 3643

The dashed part of the orbit path shows where the satellite is in the earth's shadow,  

DLR